Regional Weather Roundup
Issued by NWS Midland/Odessa, TX

Skip options and go directly to product.
Home | Oldest Version | Previous Version | Current Version | All | Text Only | Save Text | Print | Product List | Glossary Off

Skip product version selection by date and time.   

187
ASUS44 KMAF 221002
RWRMAF
MIDLAND AREA WEATHER ROUNDUP
NATIONAL WEATHER SERVICE MIDLAND TX
500 AM CDT FRI AUG 22 2014

...IN SOUTHWEST TEXAS AND SOUTHEAST NEW MEXICO...

CITY           SKY/WX    TMP DP  RH WIND       PRES   REMARKS
ALPINE         PTCLDY    68  60  75 SW7       30.17S
ANDREWS        FAIR      73  65  74 S7        30.05R
ARTESIA        MOCLDY    77  57  50 SW18      30.04R
BIG SPRING     CLEAR     79  60  51 SE9       30.05R
CARLSBAD       PTCLDY    75  58  55 SE3       30.01R
DRYDEN           N/A     80  62  54 E9        30.00S
FORT STOCKTON  PTCLDY    75  64  68 S15       30.03R
GUAD PASS      CLOUDY    63  60  90 W26G35    30.19S
HOBBS          PTCLDY    73  63  68 S10       30.07R
MARFA          PTCLDY    63  59  88 NE5       30.17S
MIDLAND AIRPK  CLEAR     81  60  48 S10       30.03S
MIDLAND INTL   CLEAR     80  61  52 S15       30.02S
ODESSA         CLEAR     78  61  55 S15       30.04R
PECOS          PTCLDY    73  63  71 CALM      30.00S
PRESIDIO       FAIR      73  70  92 E5        30.02S
SEMINOLE       CLEAR     71  62  72 S3        30.06S
SNYDER         CLEAR     77  62  58 S10       30.04R
WINK           PTCLDY    76  65  68 SE8       30.01R
$$
...OTHER STATIONS IN TEXAS...

CITY           SKY/WX    TMP DP  RH WIND       PRES   REMARKS
ABILENE        CLEAR     80  68  66 S14       30.02R
AMARILLO       MOCLDY    76  60  57 SW17G24   30.03R
AUSTIN         PTCLDY    80  74  81 S10       30.04R
BROWNSVILLE    CLEAR     78  77  96 S5        30.02F
CORPUS CHRISTI PTCLDY    81  78  91 S13       30.02S
DALLAS FTW     CLEAR     82  72  71 S17       30.00R
DEL RIO        CLEAR     83  67  58 SE8       29.98S
EL PASO        LGT RAIN  69  64  84 SE3       30.11S
HOUSTON INT    PTCLDY    79  76  90 S5        30.05S
LUBBOCK        CLEAR     76  63  64 S9        30.04R
SAN ANGELO     CLEAR     79  69  71 S10       30.03R
SAN ANTONIO    MOCLDY    81  74  79 S10       30.05S
WACO           PTCLDY    79  74  84 S18       30.03R
WICHITA FALLS  NOT AVBL
$$
...OTHER LOCATIONS IN NEW MEXICO...

CITY           SKY/WX    TMP DP  RH WIND       PRES   REMARKS
ALAMAGORDO     CLOUDY    70  59  68 S25       30.15R
ALBUQUERQUE    CLOUDY    71  47  42 CALM      30.15R
CANNON AFB     CLEAR     71  60  68 S13       30.08R
CLOVIS           N/A     72  59  64 S14       30.10S
HOLLOMAN AFB   NOT AVBL
ROSWELL        PTCLDY    75  60  59 S14       30.03R
RUIDOSO        CLOUDY    64  50  59 SW9       30.25R
SANTA FE       PTCLDY    61  39  44 SW7       30.18R
TRUTH OR CONSE LGT RAIN  72  58  61 SW9       30.12R
TUCUMCARI      PTCLDY    75  56  51 S7        30.02R
$$

USA.gov is the U.S. government's official web portal to all federal, state and local government web resources and services.